This is the latest recevied weather packets stored in our database for station/object OE2ATN. If no packets are shown the sender has not sent any weather packets the latest 10 day(s).
| Time | Temp. | Humidity | Pressure | Rain* | Wind** | Luminosity | Snow |
|---|---|---|---|---|---|---|---|
| 1778017206 | 9.44° C | 73% | 1016.6 hPa | 0 mm | - | - | - |
| 1778016906 | 9.44° C | 73% | 1016.9 hPa | 0 mm | - | - | - |
| 1778016607 | 9.44° C | 73% | 1016.9 hPa | 0 mm | - | - | - |
| 1778016306 | 9.44° C | 72% | 1016.7 hPa | 0 mm | - | - | - |
| 1778016006 | 10° C | 72% | 1016.6 hPa | 0 mm | - | - | - |
| 1778015705 | 10° C | 72% | 1016.5 hPa | 0 mm | - | - | - |
| 1778015406 | 10° C | 71% | 1016.5 hPa | 0 mm | - | - | - |
| 1778015107 | 10° C | 72% | 1016.5 hPa | 0 mm | - | - | - |
| 1778014807 | 10° C | 72% | 1016.6 hPa | 0 mm | - | - | - |
| 1778014507 | 10.56° C | 70% | 1016.5 hPa | 0 mm | - | - | - |
| 1778014206 | 10.56° C | 69% | 1016.5 hPa | 0 mm | - | - | - |
| 1778013906 | 11.11° C | 68% | 1016.4 hPa | 0 mm | - | - | - |
| 1778013607 | 11.67° C | 67% | 1016.3 hPa | 0 mm | - | - | - |
| 1778013306 | 11.11° C | 68% | 1016.2 hPa | 0 mm | - | - | - |
| 1778013006 | 11.11° C | 67% | 1016.1 hPa | 0 mm | - | - | - |
| 1778012709 | 11.67° C | 66% | 1016.1 hPa | 0 mm | - | - | - |
| 1778012407 | 11.67° C | 67% | 1016.1 hPa | 0 mm | - | - | - |
| 1778012107 | 11.67° C | 66% | 1016 hPa | 0 mm | - | - | - |
| 1778011806 | 12.22° C | 66% | 1015.9 hPa | 0 mm | - | - | - |
| 1778011507 | 11.67° C | 67% | 1015.9 hPa | 0 mm | - | - | - |
| 1778011207 | 11.67° C | 68% | 1015.9 hPa | 0 mm | - | - | - |
| 1778010907 | 11.67° C | 68% | 1015.8 hPa | 0 mm | - | - | - |
| 1778010607 | 11.67° C | 68% | 1015.8 hPa | 0 mm | - | - | - |
| 1778010306 | 11.67° C | 69% | 1015.7 hPa | 0 mm | - | - | - |
| 1778010007 | 11.67° C | 66% | 1015.6 hPa | 0 mm | - | - | - |
* Rain latest hour (hover to see other rain measurements)
** Current wind speed in m/s (hover to see current wind gust speed)